Location: Boca do Mato
(22.9085°S, 43.2930°W)
Time: 21:12:24
(UTC+00:00)

Atlas Centaur 2 - Pass Details

Date: 14 July 2020
Orbit: 459 x 1310 km, 30.4° (Epoch: 10 August)

Event Time Altitude Azimuth Distance (km) Brightness Sun altitude
Exits shadow 08:40:24 15° 247° (WSW) 2,921 4.3 -12.3°
Maximum altitude 08:47:16 50° 177° (S) 1,504 3.4 -10.8°
Drops below altitude 10° 08:54:25 10° 102° (ESE) 2,907 6.0 -9.3°
Sets 08:57:02 0° 97° (E) 3,740 6.8 -8.7°
